WB7CYS Weather Reports


Display with metric or nautical units.
time (UTC)temp
F
wind
direction
speed
MPH
gust
MPH
rain 1hr
in
rain 24hr
in
rain mn
in
humidity
%
barometer
mb
20260905154509 55 91 0.0 1.0 0.00 0.00 0.00 85 1015.6
20260905153008 54 90 1.0 2.0 0.00 0.00 0.00 87 1015.6
20260905151508 53 96 3.0 4.0 0.00 0.00 0.00 87 1015.6
20260905150006 53 88 3.0 5.0 0.00 0.00 0.00 88 1015.5
20260905144506 52 110 5.0 7.0 0.00 0.00 0.00 87 1015.5
20260905143001 51 85 2.0 5.0 0.00 0.00 0.00 88 1015.3
20260905141602 51 99 5.0 6.0 0.00 0.00 0.00 1015.1
20260905140056 0 0.0 0.0 0.00 0.00 0.00 1015.1
20260905134559 0 0.0 0.0 0.00 0.00 0.00 1015.0
20260905133054 0 0.0 0.0 0.00 0.00 0.00 1015.0
20260905131543 0 0.0 0.0 0.00 0.00 0.00 1015.0
20260905130038 0 0.0 0.0 0.00 0.00 0.00 1014.8
20260905124540 0 0.0 0.0 0.00 0.00 0.00 1014.7
20260905123029 0 0.0 0.0 0.00 0.00 0.00 1014.9
20260905121525 0 0.0 0.0 0.00 0.00 0.00 1014.9
20260905120020 0 0.0 0.0 0.00 0.00 0.00 1015.1
20260905114517 0 0.0 0.0 0.00 0.00 0.00 1014.8
20260905113012 0 0.0 0.0 0.00 0.00 0.00 1014.9
20260905111508 0 0.0 0.0 0.00 0.00 0.00 1014.9
20260905110004 0 0.0 0.0 0.00 0.00 0.00 1014.4
20260905104559 0 0.0 0.0 0.00 0.00 0.00 1014.3
20260905103055 0 0.0 0.0 0.00 0.00 0.00 1014.3
20260905101603 0 0.0 0.0 0.00 0.00 0.00 1014.2
20260905100046 0 0.0 0.0 0.00 0.00 0.00 1014.1
20260905094543 54 72 7.0 10.0 0.00 0.00 0.00 72 1014.0
20260905093042 53 77 6.0 10.0 0.00 0.00 0.00 77 1014.1
20260905091549 53 76 4.0 5.0 0.00 0.00 0.00 74 1014.3
20260905090038 53 117 1.0 3.0 0.00 0.00 0.00 75 1014.1
20260905084538 53 117 2.0 4.0 0.00 0.00 0.00 76 1014.0
20260905083035 51 226 3.0 6.0 0.00 0.00 0.00 79 1014.3
20260905081534 53 271 4.0 6.0 0.00 0.00 0.00 74 1014.0
20260905080031 55 208 1.0 6.0 0.00 0.00 0.00 73 1013.7
20260905074532 53 89 5.0 9.0 0.00 0.00 0.00 75 1013.3
20260905073023 53 86 6.0 7.0 0.00 0.00 0.00 73 1013.2
20260905071520 53 79 3.0 6.0 0.00 0.00 0.00 73 1013.2
20260905070017 53 117 2.0 3.0 0.00 0.00 0.00 72 1013.1
20260905064515 53 262 1.0 10.0 0.00 0.00 0.00 72 1012.8
20260905063011 54 101 12.0 16.0 0.00 0.00 0.00 73 1012.3
20260905061511 55 89 11.0 14.0 0.00 0.00 0.00 72 1012.3
20260905060012 56 83 10.0 18.0 0.00 0.00 0.00 70 1012.2
20260905054510 56 86 14.0 17.0 0.00 0.00 0.00 69 1012.1
20260905053009 56 74 14.0 17.0 0.00 0.00 0.00 68 1012.2
20260905051509 56 70 15.0 18.0 0.00 0.00 0.00 70 1012.0
20260905050008 56 75 15.0 16.0 0.00 0.00 0.00 69 1012.0
20260905044510 56 83 14.0 15.0 0.00 0.00 0.00 69 1012.1
20260905043006 57 89 11.0 15.0 0.00 0.00 0.00 69 1012.1
20260905041507 58 79 14.0 15.0 0.00 0.00 0.00 65 1012.3
20260905040004 58 77 13.0 17.0 0.00 0.00 0.00 63 1012.2
20260905034504 59 64 9.0 14.0 0.00 0.00 0.00 61 1012.1
20260905033004 61 70 12.0 12.0 0.00 0.00 0.00 55 1012.0
20260905031502 61 51 11.0 12.0 0.00 0.00 0.00 54 1012.0
20260905030002 61 40 10.0 12.0 0.00 0.00 0.00 54 1012.0
20260905024501 60 77 10.0 13.0 0.00 0.00 0.00 57 1011.9
20260905023100 61 73 13.0 14.0 0.00 0.00 0.00 57 1011.9
20260905021559 61 76 12.0 14.0 0.00 0.00 0.00 54 1011.9
20260905020058 62 64 11.0 13.0 0.00 0.00 0.00 55 1011.9
20260905014601 63 81 9.0 13.0 0.00 0.01 0.00 52 1011.8
20260905013100 62 85 11.0 14.0 0.00 0.01 0.00 54 1011.6
20260905011556 62 91 15.0 17.0 0.00 0.01 0.00 53 1011.6
20260905010056 62 101 12.0 18.0 0.00 0.01 0.00 56 1011.6
20260905004619 64 122 19.0 27.0 0.00 0.01 0.00 49 1011.4
20260905003055 70 77 4.0 11.0 0.00 0.01 0.00 35 1011.2
20260905001552 70 56 5.0 12.0 0.00 0.01 0.00 37 1011.0
20260905000051 70 91 4.0 8.0 0.00 0.01 0.00 35 1010.9
20260904234547 69 51 3.0 7.0 0.00 0.01 0.00 38 1011.1
20260904233045 69 324 5.0 11.0 0.00 0.01 0.00 37 1011.0
20260904231544 69 354 5.0 10.0 0.00 0.01 0.00 39 1011.1
20260904224542 68 56 4.0 10.0 0.00 0.01 0.00 38 1011.2
20260904223141 69 40 4.0 10.0 0.00 0.01 0.00 40 1011.2
20260904221538 68 326 4.0 9.0 0.00 0.01 0.00 40 1011.3
20260904220038 68 337 2.0 12.0 0.00 0.01 0.00 40 1011.3
20260904214536 69 33 9.0 11.0 0.00 0.01 0.00 41 1011.3
20260904213035 68 46 5.0 12.0 0.00 0.01 0.00 41 1011.3
20260904211535 67 6 3.0 10.0 0.00 0.01 0.00 41 1011.3
20260904210032 67 336 5.0 9.0 0.00 0.01 0.00 41 1011.2
20260904204532 67 68 4.0 7.0 0.00 0.01 0.00 40 1011.3
20260904203030 67 50 5.0 14.0 0.00 0.01 0.00 41 1011.3
20260904201529 67 351 7.0 9.0 0.00 0.01 0.00 40 1011.3
20260904200028 67 340 2.0 9.0 0.00 0.01 0.00 42 1011.4
20260904194526 66 49 5.0 10.0 0.00 0.01 0.00 44 1011.5
20260904193034 65 314 5.0 11.0 0.00 0.01 0.00 48 1011.6
20260904191524 65 317 7.0 10.0 0.00 0.01 0.00 47 1011.7
20260904190033 64 346 4.0 6.0 0.00 0.01 0.00 49 1011.9
20260904184515 63 1 3.0 5.0 0.00 0.01 0.00 49 1012.0
20260904183014 63 276 1.0 10.0 0.00 0.01 0.00 49 1012.1
20260904181513 63 311 8.0 13.0 0.00 0.01 0.00 49 1011.9
20260904180011 62 281 6.0 12.0 0.00 0.01 0.00 50 1012.1
20260904174511 62 34 2.0 6.0 0.00 0.01 0.00 52 1012.2
20260904173007 61 290 5.0 7.0 0.00 0.01 0.00 52 1012.1
20260904171505 61 334 3.0 7.0 0.00 0.01 0.00 52 1012.1
20260904170005 61 195 3.0 7.0 0.00 0.01 0.00 56 1012.3
20260904164502 60 264 2.0 4.0 0.00 0.01 0.00 56 1012.1
20260904163107 59 246 2.0 4.0 0.00 0.01 0.00 60 1012.0
20260904161602 57 267 1.0 4.0 0.00 0.01 0.00 64 1011.8
20260904160108 59 298 1.0 5.0 0.00 0.01 0.00 58 1011.8